Find Starlink 32626

NORAD ID: 62123 Int'l Des: 2024-222 Owner: SPXS Country: US Constellation: starlink operational
LEOCIRCULAR

現在のビュー

3D地球を読み込み中...

About Starlink 32626

Starlink 32626 (NORAD 62123) is a starlink constellation satellite (v2 mini) launched Nov 27, 2024 by SPXS of US. It operates in LEO, CIRCULAR orbit with a mass of 730.00 kg.

Starlink 32626について

説明を読み込み中...

次回通過

Passes for default location (London). Set your location on the main map for personalized predictions.

高度履歴

Loading altitude history...

軌道要素

1 62123U 24222K 26170.67370872 .00016968 00000-0 62438-3 0 9998
2 62123 43.0001 280.4456 0001254 275.2965 84.7744 15.27597005 88349
Epoch: Jun 19, 2026 • Age: 29 hours

現在のステータス

高度 482.4 km
速度 7.63 km/s
衛星直下点 5.24°N, 138.57°W
打ち上げ日 Nov 27, 2024
運用期間 1.5 years
タイプ internet

技術仕様

分類 Payload
質量 730.00 kg
乾燥質量 700.00 kg
総質量 730.00 kg
長さ 0.30 m
直径 4.10 m
スパン 29.00 m
形状 Box + pan
製造者 SPXS
バスタイプ Starlink V2M
フェーズステータス In Orbit
所有者/国 SPXS/US

Most Searched